Date,TemperatureHighF,TemperatureAvgF,TemperatureLowF,DewpointHighF,DewpointAvgF,DewpointLowF,HumidityHigh,HumidityAvg,HumidityLow,PressureMaxIn,PressureMinIn,WindSpeedMaxMPH,WindSpeedAvgMPH,GustSpeedMaxMPH,PrecipitationSumIn
2013-8-1,84.4,77.6,73.8,71.2,68.3,61.6,85,74,62,30.01,29.90,19,11,0,0.01
2013-8-2,84.0,77.2,72.9,71.6,69.6,68.1,86,78,65,29.97,29.86,18,10,0,0.00
2013-8-3,84.6,77.2,72.9,72.1,69.3,67.6,88,77,65,29.96,29.87,18,10,0,0.00
2013-8-4,84.7,77.4,72.5,72.5,69.6,67.1,87,77,63,29.94,29.86,17,10,0,0.00
2013-8-5,81.5,75.8,72.0,72.5,70.5,68.6,94,84,70,29.94,29.85,20,9,0,0.04
2013-8-6,84.2,77.3,73.4,71.2,69.6,67.5,87,77,64,29.95,29.87,13,8,0,0.00
2013-8-7,84.6,77.4,72.7,70.3,68.8,67.6,86,75,58,29.97,29.88,17,9,0,0.00
2013-8-8,85.1,76.8,72.9,71.4,68.9,66.0,87,77,61,29.99,29.90,16,8,0,0.00
2013-8-9,84.9,76.2,72.5,73.5,70.7,67.7,96,84,61,29.97,29.87,12,7,0,0.22
2013-8-10,81.1,75.7,72.5,73.7,72.3,71.5,97,90,75,29.95,29.85,16,8,0,0.52
2013-8-11,85.3,77.6,74.5,74.4,71.5,69.7,90,82,67,29.96,29.88,22,12,0,0.00
2013-8-12,83.7,77.4,74.1,72.0,69.6,67.7,86,77,66,29.98,29.90,17,9,0,0.00
2013-8-13,84.7,76.9,73.4,71.6,69.3,67.2,85,78,58,29.96,29.86,17,9,0,0.00
2013-8-14,84.2,77.4,73.4,71.2,69.1,67.3,84,76,62,29.94,29.85,19,11,0,0.00
2013-8-15,85.3,77.1,73.8,71.2,68.9,65.9,85,76,55,29.95,29.87,16,10,0,0.00
2013-8-16,81.5,76.9,73.0,72.9,70.2,67.2,88,80,72,29.96,29.88,16,9,0,0.00
2013-8-17,83.8,77.5,72.9,70.5,68.4,65.7,84,74,61,29.95,29.83,21,10,0,0.00
2013-8-18,84.9,77.9,73.0,72.0,68.8,66.1,82,74,62,29.94,29.84,17,10,0,0.00
2013-8-19,83.3,76.2,72.0,70.7,67.1,59.8,83,74,60,29.93,29.85,14,7,0,0.00
2013-8-20,90.7,79.0,70.7,72.6,69.5,66.1,89,74,51,29.90,29.81,13,6,0,0.00
2013-8-21,88.0,78.8,71.4,73.2,69.9,66.0,87,75,59,29.87,29.79,13,7,0,0.00
2013-8-22,89.2,79.8,73.2,73.0,70.4,67.9,88,74,57,29.89,29.79,17,8,0,0.00
2013-8-23,85.5,78.2,73.0,71.9,70.0,67.2,91,76,63,29.91,29.82,18,8,0,0.00
2013-8-24,86.0,78.1,73.9,73.6,69.7,66.9,84,76,59,29.94,29.84,16,9,0,0.00
2013-8-25,85.5,78.3,74.1,72.4,70.3,69.1,87,77,60,29.99,29.89,18,9,0,0.00
2013-8-26,86.7,78.7,74.5,72.9,69.9,68.2,85,75,55,30.00,29.90,19,10,0,0.00
2013-8-27,85.3,77.8,73.0,70.7,68.8,66.6,91,75,59,30.01,29.89,18,8,0,0.00
2013-8-28,84.4,79.0,72.5,72.4,69.5,63.1,90,74,51,29.93,29.80,16,8,0,0.00
2013-8-29,87.1,78.6,73.2,72.0,70.0,67.4,88,75,57,29.86,29.77,14,8,0,0.00
2013-8-30,87.4,78.3,72.5,73.2,69.7,64.4,89,75,61,29.93,29.83,16,9,0,0.00
2013-8-31,86.7,78.2,73.4,71.0,69.0,66.4,87,74,54,29.95,29.84,17,10,0,0.00